Location: Taupo
(38.6830°S, 176.0830°E)
Time: 14:04:47
(UTC+13:00)

MetOp-B - Pass Details

Date: 24 January 2019
Orbit: 820 x 820 km, 98.7° (Epoch: 21 February)

Event Time Altitude Azimuth Distance (km) Brightness Sun altitude
Rises 23:16:32 0° 170° (S) 3,389 8.0 -24.4°
Reaches altitude 10° 23:18:55 10° 171° (S) 2,449 7.2 -24.7°
Maximum altitude 23:24:19 71° 254° (WSW) 877 4.3 -25.3°
Enters shadow 23:25:58 45° 323° (NW) 1,122 4.6 -25.5°
